Volver al catálogo

OPS 4682 DEB

ActivoPO
NORAD 17722·DEBRIS·🇺🇸 United States

Lanzado Apr 3, 1965 desde Vandenberg Space Force Base

Loading…

Próximos Pases (próximas 24 horas)

TLE

ActualizadoSource: Space-Track

Época: Sep 13, 2026, 18:39 UTC

1 17722U 65027W   26256.77746627  .00000514  00000-0  17083-2 0  9997
2 17722  90.2416 356.3137 0003194  62.4752  91.8148 12.98980741955856

Sigue OPS 4682 DEB en tiempo real con AllMySat

Download on the App Store